Погода в Омске

Россия / Омская область     54˚59′21″N   73˚22′05″E
темп.,
°C
ветер,
м/с
пор.,
м/с
влажн.,
%
обл.,
%
осадки,
мм/ч
давл.,
гПа
погр.,
м
17 января, вс
вс1700:00−10˚ю51285100 0.0 1009301
03:00−9˚юз51087100 0.0 1006321
06:00−7˚зюз61392100 0.0 1007605
09:00−10˚зюз6139392 0.0 1008336
12:00−10˚зюз6129189 0.0 1011348
15:00−9˚юз6138812 0.0 1011355
18:00−10˚ююз6138722 0.0 1010352
21:00−8˚ююз71780100 0.0 1008550
18 января, пн
пн1800:00−8˚зюз71585100 0.0 1007905
03:00−11˚зюз61590100 0.0 1007589
06:00−13˚зюз71690100 0.0 1009577
09:00−16˚з6149049 0.0 1011395
12:00−17˚з6129143 0.0 1015373
15:00−17˚з5109218 0.0 1017343
18:00−22˚зюз349618 0.0 102056
21:00−23˚зюз34960 0.0 102055
19 января, вт
вт1900:00−23˚юз34950 0.0 102150
03:00−24˚юз34950 0.0 102052
06:00−25˚юз349510 0.0 102043
09:00−24˚юз349498 0.0 102041
12:00−22˚зюз239383 0.0 1020125
15:00−20˚з239449 0.0 1019113
18:00−24˚ссз129429 0.0 102020
21:00−23˚ссв239399 0.0 102043
20 января, ср
ср2000:00−25˚св349698 0.0 102159
03:00−25˚всв369598 0.0 1022124
06:00−23˚всв498899 0.0 1022250
09:00−24˚в51086100 0.0 1022257
12:00−23˚в5987100 0.0 1022272
15:00−22˚в4793100 0.1 1020293
18:00−22˚в4798100 1.1 1019304
21:00−23˚в359892 0.2 1019135
21 января, чт
чт2100:00−25˚вюв239993 0.2 101926
03:00−26˚юв23100100 0.0 101819
06:00−24˚юв2398100 0.1 101771
09:00−22˚ююв3498100 0.0 1015133
12:00−19˚юз3595100 0.0 1014274
15:00−19˚зюз3595100 0.0 1012286
18:00−24˚з339890 0.1 101222
21:00−26˚з33982 0.0 101121